TimeCDT,TemperatureF,Dew PointF,Humidity,Sea Level PressureIn,VisibilityMPH,Wind Direction,Wind SpeedMPH,Gust SpeedMPH,PrecipitationIn,Events,Conditions,WindDirDegrees,DateUTC
12:44 AM,62.6,57.2,82,29.86,8.0,ESE,5.8,-,N/A,,Mostly Cloudy,120,2013-10-22 05:44:00
1:43 AM,62.6,57.2,82,30.18,8.0,Calm,Calm,-,N/A,,Mostly Cloudy,0,2013-10-22 06:43:00
2:45 AM,62.6,57.2,82,30.18,8.0,South,3.5,-,N/A,,Overcast,190,2013-10-22 07:45:00
3:45 AM,60.8,57.2,88,29.73,8.0,Calm,Calm,-,N/A,,Mostly Cloudy,0,2013-10-22 08:45:00
4:42 AM,59.0,57.2,94,30.15,8.0,Calm,Calm,-,N/A,,Mostly Cloudy,0,2013-10-22 09:42:00
5:44 AM,60.8,57.2,88,30.18,8.0,Calm,Calm,-,N/A,,Mostly Cloudy,0,2013-10-22 10:44:00
6:41 AM,60.8,57.2,88,29.81,8.0,Calm,Calm,-,N/A,,Mostly Cloudy,0,2013-10-22 11:41:00
8:48 AM,62.6,55.4,77,30.21,10.0,NE,4.6,-,N/A,,Mostly Cloudy,40,2013-10-22 13:48:00
9:51 AM,66.2,57.2,73,29.84,10.0,SE,4.6,-,N/A,,Mostly Cloudy,130,2013-10-22 14:51:00
10:45 AM,73.4,55.4,53,30.24,10.0,East,9.2,-,N/A,,Overcast,90,2013-10-22 15:45:00
12:46 PM,73.4,55.4,53,29.81,10.0,NE,5.8,-,N/A,,Overcast,50,2013-10-22 17:46:00
1:48 PM,71.6,55.4,57,30.18,10.0,East,17.3,-,N/A,,Overcast,90,2013-10-22 18:48:00
2:42 PM,73.4,55.4,53,30.18,10.0,NE,8.1,-,N/A,,Overcast,50,2013-10-22 19:42:00
3:55 PM,75.2,55.4,50,29.75,10.0,NE,10.4,-,N/A,,Overcast,50,2013-10-22 20:55:00
4:46 PM,73.4,55.4,53,30.15,10.0,NE,9.2,-,N/A,,Overcast,40,2013-10-22 21:46:00
5:54 PM,69.8,53.6,56,30.18,10.0,ENE,11.5,-,N/A,,Overcast,60,2013-10-22 22:54:00
7:42 PM,62.6,53.6,72,30.21,8.0,NE,17.3,-,N/A,,Overcast,50,2013-10-23 00:42:00
8:48 PM,60.8,53.6,77,30.21,8.0,ENE,6.9,-,N/A,,Overcast,60,2013-10-23 01:48:00
9:40 PM,60.8,53.6,77,29.92,8.0,ENE,9.2,-,N/A,,Overcast,70,2013-10-23 02:40:00
10:40 PM,60.8,51.8,72,30.26,8.0,ENE,9.2,-,N/A,,Overcast,60,2013-10-23 03:40:00
11:50 PM,59.0,50.0,72,30.25,8.0,NNE,6.9,-,N/A,,Overcast,30,2013-10-23 04:50:00